[[{"header":{"parameterUnit":"m.s-1","parameterCategory":1,"la1":30.2991,"la2":30.254,"lo1":-89.0895,"lo2":-89.0444,"dy":0.0017,"dx":0.0017,"nx":28,"ny":28,"refTime":"2024-08-23T21:00:00:Z","depth":0,"parameterNumber":2,"parameterNumberName":"U-component_of_WINDS"},"data":[0,0,0,0,0,0,0,0,0,0,0,0,0,0,0,0,0,0,0,0,0,0,0,0,0,0,0,0,0,0,0,0,0,0,0,0,0,0,0,0,0,0,0,0,0,0,0,0,0,0,0,0,0,0,0,0,0,0,-2.7027,-2.7027,0,-2.7027,-2.7027,-2.7027,-2.6914,-2.6911,-2.6908,-2.6906,-2.6907,-2.6909,-2.6912,0,0,0,0,0,0,0,0,0,0,0,0,0,-2.6929,-2.6931,-2.7027,-2.7027,-2.7027,-2.7027,-2.7027,-2.7027,-2.6915,-2.6911,-2.6908,-2.6904,-2.6906,-2.6909,-2.6912,0,0,0,0,0,0,0,0,0,0,0,0,0,-2.6955,-2.6932,-2.7027,-2.6971,-2.6966,-2.7027,-2.7027,-2.7027,-2.6916,-2.6911,-2.6907,-2.6903,-2.6905,-2.6909,-2.6913,-2.7028,0,0,-2.6926,-2.6927,0,0,0,0,0,0,0,0,-2.6953,-2.6958,-2.6979,-2.6975,-2.6969,-2.6966,-2.6993,-2.7027,-2.6917,-2.6935,-2.6905,-2.69,-2.693,-2.6932,-2.6942,-2.7028,-2.7028,-2.6926,-2.6928,-2.693,-2.6931,0,0,0,0,0,0,0,-2.6952,-2.6958,-2.7027,-2.6979,-2.6973,-2.6946,-2.6944,-2.6999,-2.6957,-2.6933,-2.6925,-2.6926,-2.6926,-2.6938,-2.6941,-2.7028,-2.6926,-2.6929,-2.6932,-2.6934,-2.7206,-2.7211,0,0,0,0,0,0,-2.6957,-2.6957,-2.7027,-2.7027,-2.695,-2.6951,-2.695,-2.6972,-2.6956,-2.695,-2.693,-2.6921,-2.6933,-2.6936,-2.694,-2.7073,-2.693,-2.6934,-2.6937,-2.7202,-2.7207,-2.7213,0,0,0,0,0,0,-2.6956,-2.6965,-2.7027,-2.699,-2.6995,-2.6957,-2.6983,-2.6974,-2.6985,-2.6954,-2.6946,-2.6949,-2.693,-2.6935,-2.7006,-2.7071,-2.6936,-2.694,-2.7196,-2.7204,-2.721,-2.7339,0,0,0,0,0,0,-2.6953,-2.6965,-2.7008,-2.6991,-2.6998,-2.7093,-2.6987,-2.6977,-2.6993,-2.6981,-2.697,-2.6964,-2.6926,-2.7001,-2.7011,-2.7074,-2.6943,-2.719,-2.7199,-2.7208,-2.7329,-2.735,-2.7368,0,0,0,0,0,-2.695,-2.7045,-2.7011,-2.702,-2.7051,-2.7097,-2.7101,-2.7055,-2.6998,-2.7041,-2.7021,-2.6965,-2.7063,-2.7009,-2.7019,-2.7085,-2.7186,-2.7197,-2.7207,-2.732,-2.7346,-2.7367,0,0,0,0,0,0,-2.7071,-2.7042,-2.7004,-2.7096,-2.71,-2.7078,-2.7131,-2.7084,-2.7104,-2.7092,-2.7035,-2.7034,-2.7114,-2.7107,-2.7048,-2.7195,-2.7114,-2.7127,-2.7197,-2.7221,-2.724,-2.7239,-2.6947,0,0,0,0,0,-2.7108,-2.7148,-2.712,-2.7204,-2.7208,-2.717,-2.7188,-2.7152,-2.7154,-2.7155,-2.714,-2.7145,-2.7176,-2.7198,-2.7225,-2.7328,-2.7323,-2.7378,-2.7397,-2.7413,-2.7425,-2.7477,-2.7501,-2.7248,-2.7248,-2.7247,0,0,-2.7186,-2.7175,-2.7203,-2.7228,-2.7227,-2.7269,-2.7172,-2.7221,-2.7251,-2.7163,-2.7229,-2.7219,-2.7219,-2.7307,-2.7344,-2.7303,-2.7494,-2.7427,-2.744,-2.7443,-2.7491,-2.7515,-2.7536,-2.7255,-2.7254,-2.7252,0,0,-2.7348,-2.7344,-2.7413,-2.7413,-2.7413,-2.7386,-2.7403,-2.7388,-2.7378,-2.7444,-2.7378,-2.7413,-2.7469,-2.7472,-2.7481,-2.7644,-2.7592,-2.7654,-2.7755,-2.7807,-2.7827,-2.7844,-2.7901,-2.7922,-2.7666,-2.7667,-2.7667,0,-2.7444,-2.7505,-2.7454,-2.7507,-2.7519,-2.7441,-2.751,-2.7513,-2.7522,-2.7532,-2.7486,-2.7554,-2.7549,-2.7635,-2.7674,-2.7685,-2.7701,-2.7655,-2.7828,-2.7845,-2.786,-2.7914,-2.7936,-2.7674,-2.7673,-2.7673,-2.7672,0,-2.7622,-2.7665,-2.7721,-2.773,-2.7749,-2.781,-2.7769,-2.7794,-2.7757,-2.7736,-2.7803,-2.7795,-2.7818,-2.7836,-2.7801,-2.7917,-2.7892,-2.7838,-2.7755,-2.7893,-2.7942,-2.7963,-2.7685,-2.7682,-2.768,-2.7678,0,0,-2.786,-2.784,-2.7862,-2.7864,-2.7858,-2.789,-2.7947,-2.797,-2.7992,-2.8001,-2.8047,-2.8096,-2.8045,-2.8055,-2.802,-2.8065,-2.8193,-2.8005,-2.8004,-2.804,-2.832,-2.836,-2.8384,-2.8159,-2.8163,-2.8166,-2.832,0,-2.8016,-2.8112,-2.8068,-2.8168,-2.8207,-2.8133,-2.8182,-2.8184,-2.8166,-2.8195,-2.8175,-2.821,-2.8142,-2.8147,-2.8189,-2.8169,-2.8249,-2.8158,-2.8201,-2.8203,-2.8202,-2.841,-2.8453,-2.8598,-2.8339,-2.8342,-2.8344,0,-2.8211,-2.8227,-2.8331,-2.8316,-2.8331,-2.8376,-2.8393,-2.8423,-2.8423,-2.8406,-2.8417,-2.8371,-2.8425,-2.8344,-2.8418,-2.8357,-2.8372,-2.8366,-2.837,-2.8371,-2.8281,-2.8416,-2.8643,-2.8665,-2.8374,-2.8372,-2.837,0,-2.8372,-2.842,-2.8488,-2.8493,-2.8478,-2.8511,-2.8506,-2.8502,-2.8518,-2.8533,-2.8543,-2.8564,-2.8576,-2.8594,-2.8554,-2.8499,-2.8634,-2.8549,-2.8621,-2.8622,-2.8651,-2.865,-2.8883,-2.8664,-2.8664,-2.8663,-2.8663,0,-2.855,-2.8616,-2.856,-2.8602,-2.8674,-2.8623,-2.8695,-2.8683,-2.8679,-2.8717,-2.8655,-2.8692,-2.8638,-2.867,-2.864,-2.8705,-2.8711,-2.8699,-2.869,-2.8704,-2.8705,-2.8712,-2.87,-2.8669,-2.8668,-2.8666,-2.8665,0,-2.8742,-2.8707,-2.8776,-2.8756,-2.8752,-2.8806,-2.8789,-2.8827,-2.8804,-2.8853,-2.8861,-2.8826,-2.886,-2.8822,-2.8854,-2.8833,-2.8921,-2.8898,-2.8921,-2.8914,-2.8987,-2.898,-2.9231,-2.9261,-2.9025,-2.9027,-2.9029,0,-2.8857,-2.8906,-2.8891,-2.8912,-2.8911,-2.8945,-2.8961,-2.8913,-2.8932,-2.8935,-2.8973,-2.9001,-2.9021,-2.9079,-2.9056,-2.908,-2.9056,-2.9142,-2.9059,-2.9071,-2.9056,-2.9053,-2.9057,-2.9159,-2.9162,-2.9164,-2.9166,0,-2.9065,-2.9045,-2.907,-2.9089,-2.911,-2.9123,-2.9131,-2.9152,-2.9102,-2.9127,-2.916,-2.9176,-2.9208,-2.9237,-2.9254,-2.9248,-2.9199,-2.9193,-2.921,-2.9224,-2.9235,-2.9229,-2.8966,-2.9187,-2.9185,-2.9183,-2.9182,-2.9181,-2.922,-2.926,-2.9256,-2.9285,-2.9287,-2.9296,-2.933,-2.9311,-2.9338,-2.936,-2.933,-2.9372,-2.9369,-2.9387,-2.9388,-2.942,-2.9383,-2.9409,-2.9415,-2.9421,-2.9432,-2.9231,-2.9423,-2.9422,-2.9422,-2.9421,-2.9421,0,-2.9424,-2.9417,-2.9445,-2.9458,-2.9482,-2.9433,-2.944,-2.9462,-2.95,-2.9502,-2.9523,-2.9561,-2.9589,-2.9569,-2.9592,-2.9621,-2.9599,-2.9629,-2.9626,-2.9625,-2.9464,-2.9446,-2.9646,-2.9646,-2.9646,-2.9646,-2.9646,-2.9646,-2.9532,-2.9596,-2.9576,-2.964,-2.9632,-2.9672,-2.968,-2.9688,-2.9689,-2.9735,-2.9757,-2.9744,-2.9736,-2.9759,-2.9782,-2.9775,-2.9786,-2.9824,-2.9809,-2.9659,-2.9636,-2.9615,-2.9598,-2.9827,-2.9827,-2.9967,-2.9968,-2.9969]},{"header":{"parameterUnit":"m.s-1","parameterCategory":1,"la1":30.2991,"la2":30.254,"lo1":-89.0895,"lo2":-89.0444,"dy":0.0017,"dx":0.0017,"nx":28,"ny":28,"refTime":"2024-08-23T21:00:00:Z","depth":0,"parameterNumber":3,"parameterNumberName":"V-component_of_WINDS"},"data":[0,0,0,0,0,0,0,0,0,0,0,0,0,0,0,0,0,0,0,0,0,0,0,0,0,0,0,0,0,0,0,0,0,0,0,0,0,0,0,0,0,0,0,0,0,0,0,0,0,0,0,0,0,0,0,0,0,0,-1.3316,-1.3316,0,-1.3391,-1.3392,-1.3393,-1.3485,-1.3486,-1.3487,-1.3489,-1.3562,-1.3563,-1.3563,0,0,0,0,0,0,0,0,0,0,0,0,0,-1.3245,-1.3246,-1.3315,-1.3316,-1.3317,-1.3391,-1.3392,-1.3393,-1.3484,-1.3486,-1.3488,-1.3489,-1.3562,-1.3563,-1.3563,0,0,0,0,0,0,0,0,0,0,0,0,0,-1.3294,-1.3246,-1.3315,-1.3372,-1.3378,-1.3391,-1.3392,-1.3393,-1.3484,-1.3486,-1.3488,-1.349,-1.3562,-1.3563,-1.3563,-1.3526,0,0,-1.3566,-1.3567,0,0,0,0,0,0,0,0,-1.3291,-1.3296,-1.3363,-1.3368,-1.3375,-1.3431,-1.3394,-1.3438,-1.3483,-1.3443,-1.3489,-1.3491,-1.3516,-1.3521,-1.353,-1.3529,-1.3533,-1.3566,-1.3567,-1.3567,-1.3568,0,0,0,0,0,0,0,-1.3287,-1.3293,-1.3345,-1.3363,-1.3371,-1.3392,-1.3401,-1.3403,-1.3467,-1.3447,-1.3454,-1.3462,-1.352,-1.3529,-1.3533,-1.3534,-1.3566,-1.3567,-1.3568,-1.3568,-1.3503,-1.3501,0,0,0,0,0,0,-1.3276,-1.329,-1.3343,-1.3348,-1.3337,-1.3391,-1.3402,-1.341,-1.3467,-1.3478,-1.346,-1.3466,-1.3527,-1.3532,-1.3536,-1.3494,-1.3567,-1.3568,-1.3569,-1.3506,-1.3503,-1.35,0,0,0,0,0,0,-1.3274,-1.328,-1.334,-1.3321,-1.333,-1.339,-1.3399,-1.3411,-1.342,-1.3477,-1.3488,-1.3458,-1.3529,-1.3534,-1.3528,-1.3498,-1.3569,-1.3569,-1.3508,-1.3505,-1.3502,-1.3411,0,0,0,0,0,0,-1.3272,-1.3279,-1.3266,-1.332,-1.3331,-1.3332,-1.3398,-1.3411,-1.3422,-1.3431,-1.3478,-1.3488,-1.3531,-1.3526,-1.3528,-1.35,-1.357,-1.3511,-1.3507,-1.3503,-1.3417,-1.3405,-1.3395,0,0,0,0,0,-1.3269,-1.3237,-1.3265,-1.3271,-1.3317,-1.333,-1.3336,-1.3387,-1.3419,-1.3406,-1.3443,-1.3486,-1.3501,-1.3524,-1.3528,-1.35,-1.3513,-1.3508,-1.3503,-1.3422,-1.3407,-1.3395,0,0,0,0,0,0,-1.3178,-1.3245,-1.3277,-1.3262,-1.329,-1.3345,-1.3331,-1.337,-1.3388,-1.3395,-1.3457,-1.3466,-1.3451,-1.3475,-1.35,-1.3466,-1.3513,-1.3509,-1.345,-1.3437,-1.3426,-1.342,-1.3571,0,0,0,0,0,-1.3156,-1.3162,-1.3221,-1.3202,-1.3214,-1.327,-1.3277,-1.3314,-1.3345,-1.3356,-1.3392,-1.3419,-1.3429,-1.3435,-1.3448,-1.3421,-1.3431,-1.3404,-1.3392,-1.3383,-1.3378,-1.3363,-1.3351,-1.3484,-1.3484,-1.3484,0,0,-1.3111,-1.3149,-1.3149,-1.3184,-1.321,-1.3213,-1.3279,-1.328,-1.3283,-1.3356,-1.3352,-1.3379,-1.3412,-1.3395,-1.3389,-1.3414,-1.3343,-1.3377,-1.3369,-1.3369,-1.3357,-1.3344,-1.3333,-1.348,-1.3481,-1.3481,0,0,-1.303,-1.306,-1.3047,-1.3071,-1.311,-1.3147,-1.3143,-1.3193,-1.3214,-1.321,-1.3265,-1.3268,-1.3286,-1.3307,-1.332,-1.3245,-1.3285,-1.3248,-1.3189,-1.3174,-1.3164,-1.3155,-1.3126,-1.3115,-1.3243,-1.3243,-1.3242,0,-1.2969,-1.2978,-1.3035,-1.3032,-1.3045,-1.3113,-1.3099,-1.3119,-1.3159,-1.3166,-1.3194,-1.3216,-1.3244,-1.3231,-1.3213,-1.3222,-1.3218,-1.3242,-1.3161,-1.3153,-1.3145,-1.3118,-1.3107,-1.3238,-1.3238,-1.3239,-1.3239,0,-1.2899,-1.2904,-1.2888,-1.2926,-1.2937,-1.2929,-1.2983,-1.2987,-1.3023,-1.3056,-1.3051,-1.3086,-1.3107,-1.3107,-1.3142,-1.3098,-1.3113,-1.315,-1.3199,-1.3126,-1.3102,-1.3092,-1.3231,-1.3232,-1.3234,-1.3235,0,0,-1.2762,-1.2831,-1.2824,-1.2841,-1.2888,-1.2892,-1.2886,-1.2907,-1.2908,-1.2934,-1.2928,-1.2941,-1.2976,-1.299,-1.3028,-1.3015,-1.2951,-1.3054,-1.3056,-1.3032,-1.2903,-1.2873,-1.286,-1.2979,-1.2977,-1.2976,-1.2899,0,-1.2689,-1.2683,-1.2734,-1.2713,-1.2717,-1.2781,-1.2776,-1.2803,-1.2833,-1.284,-1.2874,-1.2881,-1.2927,-1.2936,-1.2926,-1.2961,-1.2925,-1.2967,-1.2972,-1.2971,-1.296,-1.2848,-1.2817,-1.2743,-1.289,-1.2889,-1.2888,0,-1.2602,-1.2622,-1.2603,-1.2649,-1.2652,-1.2646,-1.2669,-1.2675,-1.2706,-1.2729,-1.2745,-1.2788,-1.2783,-1.2831,-1.2824,-1.2851,-1.2856,-1.2873,-1.2871,-1.2872,-1.2924,-1.2844,-1.2721,-1.2709,-1.2874,-1.2875,-1.2876,0,-1.2501,-1.2524,-1.2515,-1.2528,-1.2582,-1.2576,-1.2598,-1.2632,-1.264,-1.2659,-1.2665,-1.2683,-1.2692,-1.2704,-1.275,-1.2781,-1.2736,-1.2789,-1.2753,-1.2752,-1.274,-1.2739,-1.2614,-1.2746,-1.2746,-1.2746,-1.2746,0,-1.2413,-1.2397,-1.247,-1.2464,-1.2449,-1.2506,-1.2488,-1.2517,-1.2546,-1.2545,-1.2601,-1.2599,-1.2661,-1.2665,-1.2701,-1.2688,-1.2692,-1.2709,-1.2718,-1.2703,-1.27,-1.2706,-1.2711,-1.2743,-1.2744,-1.2745,-1.2745,0,-1.2297,-1.2346,-1.234,-1.2391,-1.2404,-1.239,-1.2433,-1.2429,-1.2463,-1.2461,-1.2464,-1.2517,-1.2525,-1.2572,-1.2591,-1.2615,-1.2587,-1.2608,-1.2577,-1.2583,-1.2544,-1.2546,-1.2416,-1.2401,-1.2544,-1.2542,-1.2541,0,-1.2237,-1.2227,-1.2277,-1.2281,-1.2301,-1.2307,-1.2316,-1.2372,-1.2379,-1.2412,-1.2403,-1.2415,-1.2428,-1.2437,-1.2476,-1.2489,-1.2509,-1.2463,-1.2511,-1.2495,-1.2506,-1.2505,-1.2503,-1.2451,-1.2449,-1.2448,-1.2447,0,-1.2123,-1.2147,-1.2159,-1.2178,-1.2188,-1.2206,-1.2227,-1.2227,-1.2288,-1.2293,-1.2302,-1.2311,-1.233,-1.234,-1.2361,-1.2382,-1.2423,-1.2431,-1.2423,-1.2406,-1.2388,-1.2395,-1.2546,-1.2434,-1.2435,-1.2436,-1.2437,-1.2437,-1.2032,-1.2025,-1.2059,-1.207,-1.2092,-1.211,-1.2108,-1.2142,-1.215,-1.217,-1.2203,-1.2206,-1.2236,-1.2267,-1.2285,-1.2287,-1.2311,-1.2301,-1.2298,-1.2293,-1.2284,-1.2389,-1.2291,-1.2292,-1.2292,-1.2292,-1.2293,0,-1.1919,-1.1944,-1.1954,-1.1981,-1.1989,-1.203,-1.2055,-1.2058,-1.206,-1.2085,-1.2096,-1.2105,-1.2115,-1.2155,-1.2169,-1.2163,-1.2182,-1.2164,-1.2164,-1.2168,-1.2263,-1.2267,-1.2149,-1.2149,-1.2149,-1.2149,-1.2149,-1.2149,-1.1862,-1.1851,-1.1879,-1.188,-1.1905,-1.1909,-1.192,-1.1936,-1.1956,-1.1963,-1.1972,-1.1999,-1.2029,-1.2045,-1.2055,-1.2067,-1.2068,-1.2043,-1.206,-1.2148,-1.2162,-1.2175,-1.2179,-1.2044,-1.2044,-1.1966,-1.1965,-1.1964]}]]